| time (UTC) | temp F | wind direction | speed knots | gust knots | rain 1hr in | rain 24hr in | rain mn in | humidity % | barometer mb |
| 20260906113053 | 31 | 300 | 0.0 | 0.0 | 0.00 | 0.00 | 0.00 | 1009.8 | |
| 20260906111539 | 30 | 249 | 0.0 | 0.0 | 0.00 | 0.00 | 0.00 | 1009.7 | |
| 20260906110034 | 30 | 303 | 0.0 | 0.0 | 0.00 | 0.00 | 0.00 | 1009.5 | |
| 20260906104531 | 30 | 280 | 0.0 | 0.0 | 0.00 | 0.00 | 0.00 | 1009.5 | |
| 20260906103026 | 30 | 280 | 0.0 | 0.0 | 0.00 | 0.00 | 0.00 | 1009.3 | |
| 20260906101521 | 29 | 280 | 0.0 | 0.0 | 0.00 | 0.00 | 0.00 | 1009.1 | |
| 20260906100019 | 30 | 280 | 0.0 | 0.0 | 0.00 | 0.00 | 0.00 | 1009.1 | |
| 20260906094512 | 29 | 285 | 0.0 | 0.0 | 0.00 | 0.00 | 0.00 | 1008.9 | |
| 20260906093009 | 29 | 284 | 0.0 | 0.0 | 0.00 | 0.00 | 0.00 | 1008.9 | |
| 20260906091508 | 29 | 269 | 0.0 | 0.0 | 0.00 | 0.00 | 0.00 | 1009.0 | |
| 20260906090107 | 29 | 296 | 0.0 | 0.0 | 0.00 | 0.00 | 0.00 | 1009.1 | |
| 20260906084555 | 29 | 225 | 0.0 | 0.0 | 0.00 | 0.00 | 0.00 | 1009.0 | |
| 20260906083051 | 29 | 235 | 0.0 | 0.0 | 0.00 | 0.00 | 0.00 | 1009.1 | |
| 20260906081551 | 29 | 235 | 0.0 | 0.0 | 0.00 | 0.00 | 0.00 | 1009.2 | |
| 20260906080042 | 27 | 235 | 0.0 | 0.0 | 0.00 | 0.00 | 0.00 | 1009.2 | |
| 20260906074546 | 27 | 235 | 0.0 | 0.0 | 0.00 | 0.00 | 0.00 | 1009.1 | |
| 20260906073032 | 27 | 235 | 0.0 | 0.0 | 0.00 | 0.00 | 0.00 | 1009.1 | |
| 20260906071528 | 26 | 235 | 0.0 | 0.0 | 0.00 | 0.00 | 0.00 | 1009.2 | |
| 20260906070024 | 26 | 246 | 0.0 | 0.0 | 0.00 | 0.00 | 0.00 | 1009.1 | |
| 20260906064519 | 26 | 201 | 0.0 | 0.0 | 0.00 | 0.00 | 0.00 | 1009.1 | |
| 20260906063015 | 25 | 229 | 0.0 | 0.0 | 0.00 | 0.00 | 0.00 | 1009.3 | |
| 20260906061511 | 24 | 213 | 0.0 | 0.0 | 0.00 | 0.00 | 0.00 | 1009.3 | |
| 20260906060015 | 24 | 223 | 0.0 | 0.0 | 0.00 | 0.00 | 0.00 | 1009.4 | |
| 20260906054502 | 22 | 226 | 0.0 | 0.0 | 0.00 | 0.00 | 0.00 | 1009.4 | |
| 20260906053100 | 21 | 234 | 0.0 | 0.0 | 0.00 | 0.00 | 0.00 | 1009.6 | |
| 20260906051602 | 20 | 235 | 0.0 | 0.0 | 0.00 | 0.00 | 0.00 | 1010.0 | |
| 20260906050054 | 19 | 207 | 0.0 | 0.0 | 0.00 | 0.00 | 0.00 | 1010.2 | |
| 20260906044545 | 18 | 227 | 0.0 | 0.0 | 0.00 | 0.00 | 0.00 | 1010.2 | |
| 20260906043041 | 18 | 228 | 0.0 | 0.0 | 0.00 | 0.00 | 0.00 | 1010.2 | |
| 20260906041541 | 16 | 220 | 0.0 | 0.0 | 0.00 | 0.00 | 0.00 | 1010.2 | |
| 20260906040033 | 15 | 217 | 0.0 | 0.0 | 0.00 | 0.00 | 0.00 | 1010.4 | |
| 20260906034529 | 14 | 207 | 0.0 | 0.0 | 0.00 | 0.00 | 0.14 | 1010.5 | |
| 20260906033037 | 13 | 171 | 0.0 | 0.0 | 0.00 | 0.00 | 0.14 | 1010.6 | |
| 20260906031518 | 12 | 193 | 0.0 | 0.0 | 0.00 | 0.00 | 0.14 | 1010.2 | |
| 20260906030014 | 10 | 208 | 0.0 | 0.0 | 0.00 | 0.00 | 0.14 | 1010.1 | |
| 20260906024509 | 9 | 179 | 0.0 | 0.0 | 0.00 | 0.00 | 0.14 | 1010.1 | |
| 20260906023005 | 8 | 190 | 0.0 | 0.0 | 0.00 | 0.00 | 0.14 | 1010.1 | |
| 20260906021501 | 7 | 209 | 0.0 | 0.0 | 0.00 | 0.00 | 0.14 | 1010.2 | |
| 20260906014552 | 4 | 188 | 0.0 | 0.0 | 0.00 | 0.00 | 0.14 | 1010.2 | |
| 20260906013048 | 2 | 198 | 0.0 | 0.0 | 0.00 | 0.00 | 0.14 | 1010.0 | |
| 20260906011544 | 1 | 212 | 0.0 | 0.0 | 0.00 | 0.00 | 0.14 | 1009.9 | |
| 20260906010038 | 0 | 194 | 0.0 | 0.0 | 0.00 | 0.00 | 0.14 | 1010.1 | |
| 20260906004534 | 0 | 194 | 0.0 | 0.0 | 0.00 | 0.00 | 0.14 | 1010.1 | |
| 20260906003030 | 0 | 211 | 0.0 | 0.0 | 0.00 | 0.00 | 0.14 | 1010.3 | |
| 20260906001526 | -2 | 198 | 0.0 | 0.0 | 0.00 | 0.00 | 0.14 | 1010.3 | |
| 20260906000021 | -3 | 191 | 0.0 | 0.0 | 0.00 | 0.00 | 0.14 | 1010.0 | |
| 20260905234516 | -4 | 201 | 0.0 | 0.0 | 0.00 | 0.00 | 0.14 | 1010.1 | |
| 20260905233012 | -5 | 217 | 0.0 | 0.0 | 0.00 | 0.00 | 0.14 | 1009.8 | |
| 20260905231508 | -5 | 162 | 0.0 | 0.0 | 0.00 | 0.00 | 0.14 | 1009.6 | |
| 20260905230004 | -4 | 177 | 0.0 | 0.0 | 0.00 | 0.00 | 0.14 | 1009.5 | |
| 20260905224606 | -4 | 189 | 0.9 | 0.0 | 0.00 | 0.00 | 0.14 | 1009.4 | |
| 20260905223055 | -2 | 187 | 0.9 | 0.0 | 0.00 | 0.00 | 0.14 | 1009.4 | |
| 20260905221558 | -2 | 191 | 0.9 | 0.0 | 0.00 | 0.00 | 0.14 | 1009.4 | |
| 20260905220055 | -1 | 201 | 0.9 | 0.0 | 0.00 | 0.00 | 0.14 | 1009.7 | |
| 20260905214541 | 0 | 165 | 0.0 | 0.0 | 0.00 | 0.00 | 0.14 | 1009.7 | |
| 20260905213037 | 1 | 170 | 0.0 | 0.0 | 0.00 | 0.00 | 0.14 | 1009.7 | |
| 20260905211533 | 3 | 147 | 0.0 | 0.0 | 0.00 | 0.00 | 0.14 | 1009.8 | |
| 20260905210029 | 5 | 198 | 0.0 | 0.0 | 0.00 | 0.00 | 0.14 | 1009.4 | |
| 20260905204524 | 6 | 194 | 0.0 | 0.0 | 0.00 | 0.00 | 0.14 | 1009.4 | |
| 20260905203020 | 7 | 215 | 0.9 | 0.0 | 0.00 | 0.00 | 0.14 | 1009.1 | |
| 20260905201516 | 8 | 166 | 0.0 | 0.0 | 0.00 | 0.00 | 0.14 | 1009.3 | |
| 20260905200010 | 8 | 192 | 0.0 | 0.0 | 0.00 | 0.00 | 0.14 | 1009.3 | |
| 20260905194506 | 10 | 195 | 0.0 | 0.0 | 0.00 | 0.00 | 0.14 | 1009.5 | |
| 20260905193003 | 10 | 210 | 0.0 | 0.0 | 0.00 | 0.00 | 0.14 | 1009.7 | |
| 20260905191558 | 11 | 198 | 0.0 | 0.0 | 0.00 | 0.00 | 0.14 | 1009.9 | |
| 20260905190053 | 13 | 186 | 0.0 | 0.0 | 0.00 | 0.00 | 0.14 | 1009.9 | |
| 20260905184549 | 14 | 141 | 0.0 | 0.0 | 0.00 | 0.00 | 0.14 | 1010.3 | |
| 20260905183044 | 14 | 159 | 0.0 | 0.0 | 0.00 | 0.00 | 0.14 | 1010.7 | |
| 20260905181559 | 14 | 194 | 0.0 | 0.0 | 0.00 | 0.00 | 0.14 | 1011.1 | |
| 20260905180036 | 15 | 186 | 0.0 | 0.0 | 0.00 | 0.00 | 0.14 | 1011.3 | |
| 20260905174541 | 15 | 111 | 0.0 | 0.0 | 0.00 | 0.00 | 0.14 | 1011.7 | |
| 20260905173031 | 16 | 136 | 0.9 | 0.0 | 0.00 | 0.00 | 0.14 | 1011.8 | |
| 20260905171535 | 17 | 144 | 0.0 | 0.0 | 0.00 | 0.00 | 0.14 | 1012.1 | |
| 20260905170018 | 18 | 94 | 0.0 | 0.0 | 0.00 | 0.00 | 0.14 | 1012.1 | |
| 20260905164514 | 20 | 88 | 0.0 | 0.0 | 0.00 | 0.00 | 0.14 | 1012.3 | |
| 20260905163010 | 21 | 56 | 0.0 | 0.0 | 0.00 | 0.00 | 0.14 | 1012.5 | |
| 20260905161505 | 21 | 72 | 0.0 | 0.0 | 0.00 | 0.00 | 0.14 | 1012.7 | |
| 20260905160135 | 21 | 105 | 0.0 | 0.0 | 0.00 | 0.00 | 0.14 | 1012.8 | |
| 20260905154559 | 22 | 107 | 0.0 | 0.0 | 0.00 | 0.00 | 0.14 | 1012.9 | |
| 20260905153052 | 22 | 107 | 0.0 | 0.0 | 0.00 | 0.00 | 0.14 | 1013.1 | |
| 20260905151548 | 24 | 318 | 0.0 | 0.0 | 0.00 | 0.00 | 0.14 | 1013.0 | |
| 20260905150042 | 26 | 261 | 0.0 | 0.0 | 0.00 | 0.00 | 0.14 | 1013.0 | |
| 20260905144539 | 27 | 344 | 0.0 | 0.0 | 0.00 | 0.00 | 0.14 | 1013.1 | |
| 20260905143034 | 28 | 308 | 0.0 | 0.0 | 0.00 | 0.00 | 0.14 | 1013.0 | |
| 20260905141530 | 29 | 309 | 0.0 | 0.0 | 0.00 | 0.00 | 0.14 | 1013.0 | |
| 20260905140025 | 29 | 290 | 0.0 | 0.0 | 0.00 | 0.00 | 0.14 | 1013.1 | |
| 20260905134521 | 29 | 301 | 0.0 | 0.0 | 0.00 | 0.00 | 0.14 | 1013.1 | |
| 20260905133016 | 30 | 333 | 0.0 | 0.0 | 0.00 | 0.00 | 0.14 | 1013.2 | |
| 20260905131513 | 30 | 338 | 0.0 | 0.0 | 0.00 | 0.00 | 0.14 | 1013.3 | |
| 20260905130007 | 31 | 325 | 0.0 | 0.0 | 0.00 | 0.00 | 0.14 | 1013.2 | |
| 20260905124504 | 31 | 325 | 0.0 | 0.0 | 0.00 | 0.00 | 0.14 | 1013.0 | |
| 20260905123100 | 32 | 322 | 0.0 | 0.0 | 0.00 | 0.00 | 0.14 | 1013.0 | |
| 20260905121557 | 30 | 302 | 0.0 | 0.0 | 0.00 | 0.00 | 0.14 | 1012.9 | |
| 20260905120103 | 29 | 315 | 0.0 | 0.0 | 0.00 | 0.00 | 0.14 | 1012.8 | |
| 20260905114548 | 27 | 293 | 0.0 | 0.0 | 0.00 | 0.00 | 0.14 | 1012.7 |